When you browse on this site, cookies collect data to enhance your experience and personalize the content and advertising you see.
Visit our Privacy Policy to learn more. By continuing to use the site, you agree to this use of cookies and data.
  • In Spain
  • List of Countries
  • For 7 days
  • Water Temperature
  • Weather Map
  • Weather Widgets
  • user-avatar
    Login

    Hourly Weather Satif

    Today, 6 June, Saturday

    Time Temperature Precipitation Wind Pressure Humidity
    00:00 +16°C° 0 mm 1 mps 671 mmHg 66%
    01:00 +15°C° 0 mm 1 mps 671 mmHg 67%
    02:00 +15°C° 0 mm 1 mps 670 mmHg 69%
    03:00 +14°C° 0 mm 1 mps 670 mmHg 71%
    04:00 +15°C° 0 mm 1 mps 670 mmHg 66%
    05:00 +16°C° 0 mm 1 mps 671 mmHg 62%
    06:00 +18°C° 0 mm 1 mps 671 mmHg 57%
    07:00 +19°C° 0 mm 1 mps 672 mmHg 49%
    08:00 +21°C° 0 mm 1 mps 672 mmHg 42%
    09:00 +22°C° 0 mm 1 mps 672 mmHg 35%
    10:00 +24°C° 0 mm 1 mps 672 mmHg 31%
    11:00 +25°C° 0 mm 1 mps 673 mmHg 27%
    12:00 +27°C° 0 mm 2 mps 673 mmHg 23%
    13:00 +27°C° 0 mm 4 mps 673 mmHg 23%
    14:00 +27°C° 0 mm 5 mps 673 mmHg 22%
    15:00 +28°C° 0 mm 6 mps 672 mmHg 21%
    16:00 +27°C° 0 mm 5 mps 672 mmHg 23%
    17:00 +27°C° 0 mm 4 mps 671 mmHg 24%
    18:00 +26°C° 0 mm 3 mps 671 mmHg 25%
    19:00 +25°C° 0 mm 3 mps 671 mmHg 26%
    20:00 +25°C° 0 mm 2 mps 670 mmHg 27%
    21:00 +24°C° 0 mm 2 mps 670 mmHg 28%
    22:00 +23°C° 0 mm 2 mps 670 mmHg 28%
    23:00 +23°C° 0 mm 2 mps 669 mmHg 28%

    Tomorrow, 7 June, Sunday

    Time Temperature Precipitation Wind Pressure Humidity
    00:00 +23°C° 0 mm 2 mps 669 mmHg 28%
    01:00 +21°C° 0.1 mm 2 mps 668 mmHg 31%
    02:00 +21°C° 0.1 mm 2 mps 668 mmHg 34%
    03:00 +22°C° 0.1 mm 1 mps 668 mmHg 37%
    04:00 +21°C° 0.7 mm 2 mps 668 mmHg 40%
    05:00 +21°C° 0.7 mm 2 mps 668 mmHg 44%
    06:00 +20°C° 0.7 mm 2 mps 669 mmHg 47%
    07:00 +21°C° 0.2 mm 2 mps 669 mmHg 45%
    08:00 +23°C° 0.2 mm 2 mps 670 mmHg 43%
    09:00 +24°C° 0.2 mm 2 mps 670 mmHg 41%
    10:00 +25°C° 0 mm 2 mps 670 mmHg 40%
    11:00 +25°C° 0 mm 3 mps 670 mmHg 39%
    12:00 +26°C° 0 mm 3 mps 670 mmHg 37%
    13:00 +26°C° 0 mm 4 mps 670 mmHg 38%
    14:00 +26°C° 0 mm 4 mps 670 mmHg 38%
    15:00 +26°C° 0 mm 4 mps 670 mmHg 39%
    16:00 +26°C° 0 mm 4 mps 670 mmHg 40%
    17:00 +25°C° 0 mm 4 mps 670 mmHg 41%
    18:00 +23°C° 0 mm 5 mps 670 mmHg 41%
    19:00 +22°C° 0 mm 4 mps 670 mmHg 46%
    20:00 +21°C° 0 mm 3 mps 670 mmHg 51%
    21:00 +20°C° 0 mm 2 mps 670 mmHg 55%
    22:00 +20°C° 0 mm 2 mps 670 mmHg 59%
    23:00 +20°C° 0 mm 1 mps 670 mmHg 62%

    Day after tomorrow, 8 June, Monday

    Time Temperature Precipitation Wind Pressure Humidity
    00:00 +19°C° 0 mm 1 mps 669 mmHg 66%
    01:00 +19°C° 0 mm 1 mps 669 mmHg 67%
    02:00 +18°C° 0 mm 1 mps 668 mmHg 68%
    03:00 +18°C° 0 mm 1 mps 668 mmHg 70%
    04:00 +18°C° 0 mm 1 mps 668 mmHg 66%
    05:00 +19°C° 0 mm 1 mps 669 mmHg 62%
    06:00 +20°C° 0 mm 1 mps 669 mmHg 58%
    07:00 +21°C° 0 mm 1 mps 670 mmHg 52%
    08:00 +21°C° 0 mm 2 mps 670 mmHg 46%
    09:00 +23°C° 0 mm 2 mps 670 mmHg 40%
    10:00 +24°C° 0 mm 3 mps 670 mmHg 37%
    11:00 +25°C° 0 mm 4 mps 670 mmHg 34%
    12:00 +26°C° 0 mm 5 mps 670 mmHg 31%
    13:00 +26°C° 0.2 mm 5 mps 670 mmHg 32%
    14:00 +26°C° 0.2 mm 6 mps 670 mmHg 34%
    15:00 +26°C° 0.2 mm 7 mps 670 mmHg 36%
    16:00 +23°C° 0.2 mm 6 mps 670 mmHg 42%
    17:00 +22°C° 0.2 mm 5 mps 670 mmHg 48%
    18:00 +21°C° 0.2 mm 4 mps 670 mmHg 54%
    19:00 +19°C° 0.3 mm 3 mps 670 mmHg 61%
    20:00 +18°C° 0.3 mm 2 mps 670 mmHg 68%
    21:00 +17°C° 0.3 mm 2 mps 670 mmHg 75%
    22:00 +18°C° 0.4 mm 1 mps 670 mmHg 77%
    23:00 +16°C° 0.4 mm 1 mps 670 mmHg 79%

    9 June, Tuesday

    Time Temperature Precipitation Wind Pressure Humidity
    00:00 +16°C° 0.4 mm 1 mps 670 mmHg 81%
    01:00 +16°C° 0 mm 1 mps 670 mmHg 82%
    02:00 +15°C° 0 mm 1 mps 669 mmHg 84%
    03:00 +14°C° 0 mm 0 mps 669 mmHg 85%
    04:00 +15°C° 0 mm 1 mps 669 mmHg 83%
    05:00 +16°C° 0 mm 1 mps 670 mmHg 82%
    06:00 +16°C° 0 mm 1 mps 670 mmHg 80%
    07:00 +18°C° 0 mm 1 mps 671 mmHg 72%
    08:00 +19°C° 0 mm 1 mps 671 mmHg 63%
    09:00 +20°C° 0 mm 1 mps 671 mmHg 55%
    10:00 +21°C° 0 mm 1 mps 672 mmHg 50%
    11:00 +21°C° 0 mm 2 mps 672 mmHg 46%
    12:00 +23°C° 0 mm 2 mps 672 mmHg 41%
    13:00 +22°C° 0 mm 3 mps 672 mmHg 42%
    14:00 +22°C° 0 mm 3 mps 672 mmHg 44%
    15:00 +23°C° 0 mm 4 mps 672 mmHg 45%
    16:00 +21°C° 0 mm 4 mps 672 mmHg 51%
    17:00 +20°C° 0 mm 4 mps 672 mmHg 57%
    18:00 +19°C° 0 mm 4 mps 671 mmHg 63%
    19:00 +18°C° 0.2 mm 3 mps 672 mmHg 67%
    20:00 +17°C° 0.2 mm 2 mps 672 mmHg 70%
    21:00 +16°C° 0.2 mm 2 mps 672 mmHg 74%
    22:00 +16°C° 0 mm 1 mps 672 mmHg 75%
    23:00 +16°C° 0 mm 1 mps 672 mmHg 77%

    10 June, Wednesday

    Time Temperature Precipitation Wind Pressure Humidity
    00:00 +16°C° 0 mm 1 mps 672 mmHg 78%
    01:00 +16°C° 0 mm 1 mps 672 mmHg 79%
    02:00 +16°C° 0 mm 1 mps 671 mmHg 80%
    03:00 +15°C° 0 mm 1 mps 671 mmHg 82%
    04:00 +16°C° 0 mm 1 mps 671 mmHg 79%
    05:00 +16°C° 0 mm 1 mps 672 mmHg 77%
    06:00 +15°C° 0 mm 0 mps 672 mmHg 75%
    07:00 +19°C° 0 mm 1 mps 673 mmHg 67%
    08:00 +19°C° 0 mm 2 mps 673 mmHg 59%
    09:00 +21°C° 0 mm 3 mps 673 mmHg 51%
    10:00 +21°C° 0.1 mm 3 mps 674 mmHg 48%
    11:00 +22°C° 0.1 mm 4 mps 674 mmHg 46%
    12:00 +23°C° 0.1 mm 5 mps 674 mmHg 43%
    13:00 +23°C° 0.1 mm 5 mps 673 mmHg 43%
    14:00 +23°C° 0.1 mm 5 mps 673 mmHg 42%
    15:00 +23°C° 0.1 mm 4 mps 673 mmHg 42%
    16:00 +22°C° 0 mm 4 mps 673 mmHg 47%
    17:00 +20°C° 0 mm 4 mps 672 mmHg 52%
    18:00 +19°C° 0 mm 4 mps 672 mmHg 57%
    19:00 +18°C° 0 mm 3 mps 672 mmHg 60%
    20:00 +17°C° 0 mm 3 mps 672 mmHg 62%
    21:00 +16°C° 0 mm 2 mps 672 mmHg 65%
    22:00 +16°C° 0 mm 1 mps 672 mmHg 65%
    23:00 +16°C° 0 mm 1 mps 672 mmHg 65%

    11 June, Thursday

    Time Temperature Precipitation Wind Pressure Humidity
    00:00 +15°C° 0 mm 1 mps 671 mmHg 66%
    01:00 +14°C° 0 mm 0 mps 671 mmHg 67%
    02:00 +14°C° 0 mm 0 mps 671 mmHg 69%
    03:00 +13°C° 0 mm 0 mps 671 mmHg 70%
    04:00 +14°C° 0 mm 0 mps 671 mmHg 65%
    05:00 +15°C° 0 mm 0 mps 671 mmHg 60%
    06:00 +16°C° 0 mm 1 mps 672 mmHg 56%
    07:00 +19°C° 0 mm 1 mps 672 mmHg 47%
    08:00 +20°C° 0 mm 1 mps 672 mmHg 38%
    09:00 +21°C° 0 mm 1 mps 673 mmHg 30%
    10:00 +22°C° 0 mm 1 mps 673 mmHg 28%
    11:00 +23°C° 0 mm 1 mps 673 mmHg 26%
    12:00 +24°C° 0 mm 2 mps 673 mmHg 24%
    13:00 +25°C° 0 mm 2 mps 673 mmHg 24%
    14:00 +26°C° 0 mm 2 mps 672 mmHg 23%
    15:00 +26°C° 0 mm 3 mps 672 mmHg 22%
    16:00 +26°C° 0 mm 3 mps 672 mmHg 24%
    17:00 +25°C° 0 mm 3 mps 672 mmHg 25%
    18:00 +25°C° 0 mm 3 mps 671 mmHg 27%
    19:00 +23°C° 0 mm 2 mps 671 mmHg 32%
    20:00 +21°C° 0 mm 2 mps 671 mmHg 37%
    21:00 +20°C° 0 mm 1 mps 671 mmHg 42%
    22:00 +20°C° 0 mm 1 mps 671 mmHg 44%
    23:00 +19°C° 0 mm 1 mps 671 mmHg 46%
    Show more